Perry, FL

3:11 PM EST on February 26, 2017 (GMT -0500)
Perry

Weather History for K40J - March, 2012

Change the Weather History Date:

Saturday, March 3, 2012

  Actual Average (KVLD) Record (KVLD)
Temperature  
Mean Temperature 70 °F -  
Max Temperature 80 °F 68 °F 83 °F (2015)
Min Temperature 55 °F 45 °F 30 °F (2009)
Cooling Degree Days 6    
Growing Degree Days 20 (Base 50)    
Moisture  
Dew Point 65 °F    
Average Humidity 84    
Maximum Humidity 90    
Minimum Humidity 67    
Precipitation  
Precipitation 1.77 in - - ()
Sea Level Pressure  
Sea Level Pressure 29.78 in    
Wind  
Wind Speed 15 mph (SSW)    
Max Wind Speed 29 mph    
Max Gust Speed 48 mph    
Averages and records for this station are not official NWS values.
T = Trace of Precipitation, MM = Missing Value Source: NWS Daily Summary

Daily Weather History Graph

Daily Weather History Graph

Search for Another Location

Airport or City:

Trip Planner

Search our weather history database for the weather conditions in past years. The results will help you decide how hot, cold, wet, or windy it might be!

Date:

Astronomy

Mar. 03, 2012 Rise Set
Actual Time 6:57 AM EST 6:35 PM EST
Civil Twilight 6:33 AM EST 6:59 PM EST
Nautical Twilight 6:05 AM EST 7:26 PM EST
Astronomical Twilight 5:38 AM EST 7:54 PM EST
Moon 2:01 PM EST (3/3) 3:16 AM EST (3/3)
Length of Visible Light 12h 25m
Length of Day
11h 37m
Waxing Gibbous, 75% of the Moon is Illuminated
Mar 3
Waxing Gibbous
Mar 8
Full
Mar 14
Last Quarter
Mar 22
New
Mar 30
First Quarter

Hourly Weather History & Observations

Time (EST) Temp. Heat Index Dew Point Humidity Pressure Visibility Wind Dir Wind Speed Gust Speed Precip Events Conditions
12:53 AM 71.1 °F - 66.9 °F 87% 29.87 in - South 11.5 mph 21.9 mph N/A   Unknown
1:53 AM 71.1 °F - 66.9 °F 87% 29.85 in - SSW 17.3 mph 28.8 mph N/A   Unknown
2:53 AM 70.0 °F - 66.9 °F 90% 29.82 in - South 15.0 mph 26.5 mph N/A   Unknown
3:53 AM 70.0 °F - 66.0 °F 87% 29.82 in - South 17.3 mph 24.2 mph N/A   Unknown
4:53 AM 70.0 °F - 66.0 °F 87% 29.82 in - SSW 10.4 mph - N/A   Unknown
5:53 AM 69.1 °F - 66.0 °F 90% 29.83 in - SSW 13.8 mph 21.9 mph N/A   Unknown
6:53 AM 69.1 °F - 66.0 °F 90% 29.84 in - South 16.1 mph 23.0 mph N/A   Unknown
7:53 AM 70.0 °F - 66.0 °F 87% 29.83 in - SSW 13.8 mph - N/A   Unknown
8:53 AM 72.0 °F - 66.9 °F 84% 29.83 in - SSW 11.5 mph 20.7 mph N/A   Unknown
9:53 AM 71.1 °F - 66.9 °F 87% 29.83 in - South 18.4 mph 21.9 mph N/A   Unknown
10:53 AM 73.9 °F - 68.0 °F 82% 29.80 in - South 15.0 mph 26.5 mph N/A   Unknown
11:53 AM 75.9 °F - 68.0 °F 76% 29.79 in - SSW 20.7 mph 36.8 mph N/A   Unknown
12:53 PM 77.0 °F - 68.0 °F 74% 29.78 in - SSW 23.0 mph 35.7 mph N/A   Unknown
1:53 PM 80.1 °F 82.7 °F 68.0 °F 67% 29.76 in - SSW 21.9 mph 38.0 mph N/A   Unknown
2:53 PM 80.1 °F 82.7 °F 68.0 °F 67% 29.72 in - SSW 25.3 mph 48.3 mph N/A   Unknown
3:53 PM 79.0 °F - 68.0 °F 69% 29.71 in - SSW 28.8 mph 34.5 mph N/A   Unknown
4:53 PM 75.0 °F - 68.0 °F 79% 29.72 in - South 20.7 mph 32.2 mph N/A   Unknown
5:53 PM 73.9 °F - 68.0 °F 82% 29.71 in - South 20.7 mph 29.9 mph N/A   Unknown
6:53 PM 72.0 °F - 68.0 °F 87% 29.70 in - South 16.1 mph 28.8 mph N/A   Unknown
7:53 PM 73.9 °F - 68.0 °F 82% 29.69 in - South 25.3 mph 34.5 mph N/A   Unknown
8:25 PM 66.2 °F - 62.6 °F 88% 29.74 in - NW 8.1 mph 29.9 mph N/A   Unknown
8:53 PM 62.1 °F - 59.0 °F 90% 29.73 in - NNW 9.2 mph - 0.51 in   Unknown
9:53 PM 61.0 °F - 57.9 °F 90% 29.74 in - North 5.8 mph - 0.93 in   Unknown
10:53 PM 61.0 °F - 57.9 °F 90% 29.74 in - NNE 4.6 mph - 0.12 in   Unknown
11:53 PM 55.9 °F - 53.1 °F 90% 29.74 in - North 15.0 mph 21.9 mph 0.21 in   Unknown